FENGYUN 1C DEB, 30622

Orbit data source: Space-Track

FENGYUN 1C DEB, 30622 is space debris in SSO originally from a launch on Mon, 10 May 1999 UTC launched from the Taiyaun Space Center, China (TSC). Fengyun 1C debris stems from the Chinese weather satellite Fengyun-1C, which was intentionally destroyed by a Chinese anti-satellite missile in 2007. This event dramatically increased the amount of space debris, with thousands of trackable fragments posing hazards to satellites and human spaceflight. The Fengyun 1C debris cloud has become a focal point in discussions about space sustainability and the need for international regulations to prevent the creation of new debris.

Loading next visibility...
Identifier
30622, 1999-025AND
Orbit
SSO
Country
Flag of CNCN / PRC
Related business
Manufacturer
Unknown
Mission
Spacecraft
Bus & Motor
Unknown
Mass
Unknown
Launch date (UTC)
1999-05-10 (27 years ago)
Launch vehicle
Unknown
Launch site
Taiyaun Space Center, China (TSC)
Object type
Payload
Rocket body
Debris
Shape & HBR
Unknown shape, 0.1 m
Radar Cross Section
Small (<0.1 m²)

Expand to show TLE details & history
Last TLE update: 1 day ago

TLE from 1 day ago
0 FENGYUN 1C DEB
1 30622U 99025AND 26106.09644045  .00003665  00000-0  13160-2 0  9998
2 30622 100.9907 155.6590 0069198  40.5839 349.9225 14.33376962705789
Epoch: 2026-04-16T02:18Z
TLE epoch observation values (Epoch: 2026-04-16T02:18:52.454Z)
Latitude
29.80599°
Longitude
-89.66162°
Altitude
735.344 km
Speed
7.516 km/s
True Right ascension
09h 57m 13s
True Declination
29° 39' 27"
Sunlit
Object was in daylight at epoch
Visualization orbit readout
Latitude
Unknown
Longitude
Unknown
Altitude
Unknown
Speed
Unknown
Apparent Right ascension
Unknown
Apparent Declination
Unknown
Sunlit
N/A
Visualization observer readout
Local Sidereal Time
09:59:27
Azimuth
Unknown
Elevation
Unknown
Doppler factor
Unknown
Orbital elements
Apogee altitude
827.247 km
Perigee altitude
728.212 km
Semi-major axis
7,155.866 km
Eccentricity
0.00692
Inclination
100.9907°
RAAN
155.659°
Arg. of periapsis
40.5839°
True anomaly
349.78256°
Mean anomaly
349.9225°
Eccentric anomaly
349.85265°
Mean motion
3.5855 °/min
Orbital period
100.4 mins
BSTAR
0.001316
Loading maneuver chart data...
Computing Atmospheric mass density...
Loading historical data...
Loading historical data...
Loading historical data...
Loading historical data...
Loading historical data...
Loading historical data...
Loading historical data...

Documentation

Showing up to 5 results
|